COSMOS 1275 DEB, 42147

Orbit data source: Space-Track

COSMOS 1275 DEB, 42147 is space debris in LEO originally from a launch on Thu, 04 Jun 1981 UTC launched from the Plesetsk Missile And Space Complex (PKMTR). Debris objects in space refer to the collection of defunct objects orbiting the Earth. Examples of debris include non-operational satellites, rocket bodies, and fragments generated from explosions, collisions, or faulty payload assembly.

Loading next visibility...
Identifier
42147, 1981-053RK
Orbit
LEO
Country
Flag of CISCIS
Related business
Manufacturer
Unknown
Mission
Spacecraft
Bus & Motor
Unknown
Mass
Unknown
Launch date (UTC)
1981-06-04 (45 years ago)
Launch vehicle
Unknown
Launch site
Plesetsk Missile And Space Complex (PKMTR)
Object type
Payload
Rocket body
Debris
Shape & HBR
Unknown shape, 0.1 m
Radar Cross Section
Small (<0.1 m²)

Expand to show TLE details & history
Last TLE update: 4 days ago

TLE from 4 days ago
0 COSMOS 1275 DEB
1 42147U 81053RK  25346.88557505  .00003393  00000-0  14978-2 0  9997
2 42147  83.0648  41.0336 0018579 268.6475  91.2580 14.22983076622517
Epoch: 2025-12-12T21:15Z
TLE epoch observation values (Epoch: 2025-12-12T21:15:13.684Z)
Latitude
0.00001°
Longitude
0.40581°
Altitude
818.57 km
Speed
7.444 km/s
True Right ascension
02h 44m 08s
True Declination
0° 00' 00"
Sunlit
Object was in full shadow at epoch
Visualization orbit readout
Latitude
Unknown
Longitude
Unknown
Altitude
Unknown
Speed
Unknown
Apparent Right ascension
Unknown
Apparent Declination
Unknown
Sunlit
N/A
Visualization observer readout
Local Sidereal Time
12:41:22
Azimuth
Unknown
Elevation
Unknown
Doppler factor
Unknown
Orbital elements
Apogee altitude
825.719 km
Perigee altitude
799.001 km
Semi-major axis
7,190.497 km
Eccentricity
0.00186
Inclination
83.0648°
RAAN
41.0336°
Arg. of periapsis
268.6475°
True anomaly
91.47084°
Mean anomaly
91.258°
Eccentric anomaly
91.36442°
Mean motion
3.55963 °/min
Orbital period
101.13 mins
BSTAR
0.0014978
Loading maneuver chart data...
Computing Atmospheric mass density...
Loading historical data...
Loading historical data...
Loading historical data...
Loading historical data...
Loading historical data...
Loading historical data...
Loading historical data...

Documentation

Showing up to 5 results
|